Regional Weather Roundup
Issued by NWS Columbia, SC

Home | Current Version | Previous Version | Text Only | Print | Product List | Glossary On
Versions: 1 2 3 4 5 6 7 8 9 10 11 12 13 14 15 16 17 18 19 20 21 22 23 24 25 26 27
000
ASUS42 KCAE 180310
RWRCAE
REGIONAL WEATHER ROUNDUP
NATIONAL WEATHER SERVICE COLUMBIA SC
1100 PM EDT THU APR 17 2014

NOTE: "FAIR" INDICATES FEW OR NO CLOUDS BELOW 12,000 FEET WITH NO
SIGNIFICANT WEATHER AND/OR OBSTRUCTIONS TO VISIBILITY.

NOT ALL STATIONS ARE QUALITY CONTROLLED BY THE NATIONAL
WEATHER SERVICE. USE DATA WITH CAUTION...ESPECIALLY
DEWPOINT OBSERVATIONS.

SCZ001>056-GAZ040-063>065-077-180400-
...UPSTATE SOUTH CAROLINA...

CITY           SKY/WX    TMP DP  RH WIND       PRES   REMARKS
ANDERSON       CLOUDY    55  32  41 E6        30.40R
LIBERTY        MOCLDY    53  32  45 MISG      30.39F
SPARTANBURG    FAIR      52  36  54 N3        30.41S
CLEMSON        CLOUDY    55  36  48 NE5       30.40S
GREENVILLE     MOCLDY    54  30  40 NE9       30.41S
GREENWOOD      MOCLDY    54  33  45 NE5       30.40S
GREER          MOCLDY    52  31  44 NE6       30.40S
ROCK HILL      PTCLDY    46  37  71 CALM      30.42S
CHESTER        FAIR      52  36  54 NE5       30.42S
LAURENS        FAIR      46  39  76 NE6       30.41S


...CENTRAL SOUTH CAROLINA...

CITY           SKY/WX    TMP DP  RH WIND       PRES   REMARKS
COLUMBIA APT   MOCLDY    56  42  59 CALM      30.38S
COLUMBIA OWENS MOCLDY    54  43  66 CALM      30.40S
DARLINGTON     CLEAR     54  43  66 NE7       30.41F
FLORENCE       CLEAR     53  44  71 NE7       30.39F
MCENTIRE ANGB  MOCLDY    55  42  62 NE6       30.39S
ORANGEBURG     MOCLDY    56  44  64 E5        30.38R
SUMTER SHAW    PTCLDY    51  43  74 NE6       30.37F
NEWBERRY       FAIR      52  37  58 NE6       30.43S
AIKEN          FAIR      54  43  66 CALM      30.41F
BARNWELL       FAIR      55  45  67 NE5       30.37S
MANNING        FAIR      52  48  87 CALM      30.38F
CAMDEN         FAIR      54  43  66 NE5       30.40S
LANCASTER      FAIR      45  45 100 CALM      30.42R
WINNSBORO      FAIR      52  43  71 NE3       30.40R


...EASTERN AND COASTAL SOUTH CAROLINA...

CITY           SKY/WX    TMP DP  RH WIND       PRES   REMARKS
N MYRTLE BCH   CLEAR     55  49  80 NE10      30.40S
CONWAY         FAIR      54  54 100 E3        30.40S FOG
MARION         FAIR      52  43  71 NE5       30.40F
HARTSVILLE     FAIR      55  41  58 NE9       30.40F
FLORENCE       CLEAR     53  44  71 NE7       30.39F
DARLINGTON     CLEAR     54  43  66 NE7       30.41F
CHARLESTON APT MOCLDY    59  50  72 E8        30.37F
WALTERBORO     MOCLDY    54  52  94 E5        30.37S
BEAUFORT       MOCLDY    61  50  67 E6        30.35F


...EASTERN GEORGIA...

CITY           SKY/WX    TMP DP  RH WIND       PRES   REMARKS
AUGUSTA BUSH F MOCLDY    56  40  55 CALM      30.36F
AUGUSTA DANIEL MOCLDY    60  40  47 NE8       30.37S
THOMSON        CLOUDY    57  42  57 NE7       30.40F
WASHINGTON     FAIR      59  37  44 E6        30.36F
CLAXTON        FAIR      59  54  82 E7        30.32F
SYLVANIA       MOCLDY    59  52  77 E5        30.35F
STATESBORO       N/A     58  47  66 E7        30.33F
SAVANNAH       CLOUDY    60  50  69 E10       30.34F


...SOUTHERN NORTH CAROLINA...

CITY           SKY/WX    TMP DP  RH WIND       PRES   REMARKS
CHARLOTTE      CLEAR     56  29  35 NE8       30.43S
MONROE         CLEAR     50  36  58 NE6       30.41F
WADESBORO      CLEAR     44  39  85 CALM      30.42F
ROCKINGHAM       N/A     52  42  66 NE3       30.41F
RUTHERFORDTON  PTCLDY    49  31  49 NE3       30.43F
ASHEVILLE      MOCLDY    45  30  55 CALM      30.42S

$$



USA.gov is the U.S. government's official web portal to all federal, state and local government web resources and services.